[[{"header":{"parameterUnit":"m.s-1","parameterCategory":1,"la1":30.2991,"la2":30.254,"lo1":-89.0895,"lo2":-89.0444,"dy":0.0017,"dx":0.0017,"nx":28,"ny":28,"refTime":"2025-12-28T09:00:00:Z","depth":0,"parameterNumber":2,"parameterNumberName":"U-component_of_WINDS"},"data":[0,0,0,0,0,0,0,0,0,0,0,0,0,0,0,0,0,0,0,0,0,0,0,0,0,0,0,0,0,0,0,0,0,0,0,0,0,0,0,0,0,0,0,0,0,0,0,0,0,0,0,0,0,0,0,0,0,0,2.708,2.708,0,2.7114,2.7114,2.7115,2.7088,2.7087,2.7086,2.7085,2.7127,2.7129,2.7131,0,0,0,0,0,0,0,0,0,0,0,0,0,2.6998,2.7,2.708,2.708,2.708,2.7114,2.7114,2.7115,2.7088,2.7087,2.7085,2.7084,2.7126,2.7129,2.7131,0,0,0,0,0,0,0,0,0,0,0,0,0,2.7033,2.7,2.708,2.7071,2.7071,2.7114,2.7114,2.7115,2.7089,2.7087,2.7085,2.7083,2.7125,2.7129,2.7132,2.7188,0,0,2.7142,2.7143,0,0,0,0,0,0,0,0,2.7031,2.7036,2.7072,2.7072,2.7071,2.7095,2.7101,2.714,2.7089,2.7082,2.7085,2.7083,2.7118,2.7122,2.7132,2.719,2.7191,2.7142,2.7144,2.7146,2.7147,0,0,0,0,0,0,0,2.7029,2.7035,2.7093,2.7072,2.7072,2.7068,2.7071,2.7108,2.711,2.7082,2.7081,2.7085,2.7118,2.7129,2.7133,2.7192,2.7142,2.7145,2.7147,2.7149,2.7299,2.7301,0,0,0,0,0,0,2.7026,2.7033,2.7092,2.7094,2.7046,2.7071,2.7074,2.7089,2.7109,2.711,2.7086,2.7083,2.7125,2.7129,2.7135,2.7202,2.7146,2.7149,2.7151,2.7297,2.7299,2.7301,0,0,0,0,0,0,2.7025,2.7032,2.7091,2.7063,2.707,2.7074,2.7091,2.7091,2.7102,2.7112,2.7113,2.7097,2.7123,2.713,2.7175,2.7203,2.715,2.7153,2.7294,2.7298,2.73,2.7337,0,0,0,0,0,0,2.7022,2.7031,2.7051,2.7064,2.7072,2.7128,2.7093,2.7093,2.7107,2.7104,2.7122,2.7124,2.7122,2.717,2.7178,2.7207,2.7156,2.7292,2.7296,2.7299,2.7333,2.7341,2.7347,0,0,0,0,0,2.702,2.7061,2.7052,2.7059,2.7096,2.713,2.7135,2.713,2.711,2.713,2.7137,2.7123,2.7199,2.7174,2.7183,2.7214,2.729,2.7295,2.7299,2.733,2.7339,2.7347,0,0,0,0,0,0,2.7053,2.7062,2.7052,2.7099,2.7113,2.7125,2.7151,2.714,2.7162,2.7158,2.7154,2.7158,2.7205,2.7214,2.7187,2.727,2.7242,2.7248,2.7262,2.7271,2.7278,2.7275,2.7159,0,0,0,0,0,2.7066,2.709,2.7098,2.7138,2.7146,2.7147,2.7162,2.7157,2.7173,2.7179,2.7189,2.7207,2.7235,2.7254,2.728,2.7335,2.7339,2.736,2.7367,2.7373,2.7379,2.741,2.742,2.7316,2.7316,2.7316,0,0,2.7092,2.71,2.7116,2.7145,2.7156,2.7183,2.7152,2.7183,2.7204,2.7185,2.7227,2.7235,2.7255,2.7305,2.7328,2.7314,2.7409,2.7379,2.7383,2.7386,2.7416,2.7426,2.7435,2.7319,2.7319,2.7318,0,0,2.7155,2.7163,2.7197,2.7209,2.7225,2.7225,2.7234,2.7248,2.7251,2.7293,2.728,2.7307,2.7354,2.7369,2.7383,2.7453,2.7443,2.7462,2.7499,2.753,2.7538,2.7545,2.7572,2.7581,2.7468,2.7468,2.7468,0,2.7186,2.7225,2.7217,2.7248,2.7262,2.7244,2.7281,2.7293,2.7318,2.7329,2.7313,2.7373,2.7385,2.744,2.7457,2.7468,2.748,2.746,2.7537,2.7544,2.7551,2.7576,2.7586,2.747,2.747,2.747,2.747,0,2.7264,2.7291,2.7318,2.734,2.7357,2.7391,2.7391,2.741,2.7404,2.7407,2.7452,2.7466,2.7495,2.7507,2.7503,2.7562,2.7553,2.7537,2.7509,2.7563,2.7587,2.7596,2.7474,2.7473,2.7472,2.7472,0,0,2.7348,2.7365,2.7375,2.7386,2.7403,2.7425,2.746,2.7486,2.7503,2.7522,2.7552,2.7593,2.7578,2.7595,2.7592,2.7619,2.7675,2.76,2.76,2.7614,2.7743,2.7754,2.7765,2.7668,2.7669,2.7671,2.7741,0,2.7411,2.7468,2.7463,2.7518,2.7545,2.7529,2.7559,2.7574,2.7579,2.7604,2.7611,2.764,2.7618,2.7628,2.7654,2.7662,2.7701,2.7657,2.7698,2.7699,2.7693,2.7777,2.779,2.7855,2.775,2.7752,2.7753,0,2.7493,2.7512,2.7569,2.7583,2.7594,2.7621,2.7646,2.7669,2.7688,2.7689,2.7708,2.7701,2.7738,2.7709,2.7762,2.7733,2.7749,2.7756,2.7759,2.7763,2.7729,2.7784,2.7876,2.7886,2.7767,2.7766,2.7765,0,2.7549,2.759,2.7629,2.7639,2.7656,2.7676,2.7684,2.77,2.7717,2.774,2.7751,2.7779,2.7794,2.7817,2.7819,2.7797,2.7873,2.7843,2.7878,2.7878,2.7894,2.7893,2.799,2.7905,2.7904,2.7904,2.7904,0,2.7621,2.7657,2.7655,2.7679,2.772,2.7715,2.7756,2.7763,2.7778,2.7806,2.7795,2.7821,2.7822,2.785,2.7852,2.7897,2.7904,2.7908,2.7908,2.7909,2.7909,2.792,2.7916,2.7907,2.7906,2.7906,2.7905,0,2.769,2.769,2.7732,2.7745,2.7749,2.7779,2.7791,2.7816,2.782,2.7855,2.7863,2.787,2.7903,2.7907,2.7946,2.7948,2.8001,2.7997,2.7994,2.7994,2.8028,2.8025,2.8136,2.8151,2.8055,2.8056,2.8057,0,2.7736,2.7763,2.7778,2.7795,2.7804,2.7831,2.7848,2.7845,2.7863,2.7887,2.7909,2.794,2.7965,2.8019,2.8029,2.8059,2.8056,2.8093,2.806,2.8061,2.8057,2.8055,2.8059,2.8099,2.81,2.8101,2.8101,0,2.7817,2.7816,2.7839,2.7863,2.7883,2.7902,2.792,2.7935,2.7935,2.7956,2.7988,2.8007,2.8047,2.8079,2.8108,2.812,2.8112,2.8112,2.8121,2.8122,2.812,2.8122,2.8012,2.8109,2.8108,2.8108,2.8107,2.8107,2.7877,2.79,2.7915,2.7942,2.7955,2.7972,2.7996,2.8002,2.8028,2.8058,2.8056,2.8092,2.8112,2.8151,2.8165,2.8195,2.8183,2.8197,2.82,2.8204,2.8207,2.8115,2.8201,2.82,2.82,2.82,2.82,0,2.7958,2.7966,2.7991,2.8016,2.8038,2.8025,2.8045,2.8065,2.8096,2.8114,2.8138,2.8176,2.8208,2.8221,2.8252,2.8274,2.8271,2.8282,2.8281,2.8284,2.8216,2.8204,2.8284,2.8284,2.8284,2.8284,2.8284,2.8284,2.8003,2.8042,2.8043,2.809,2.8099,2.8132,2.8145,2.8162,2.8176,2.8218,2.8243,2.8251,2.8268,2.8301,2.833,2.8333,2.8346,2.8359,2.8361,2.8297,2.8288,2.828,2.827,2.8361,2.8362,2.8426,2.8427,2.8427]},{"header":{"parameterUnit":"m.s-1","parameterCategory":1,"la1":30.2991,"la2":30.254,"lo1":-89.0895,"lo2":-89.0444,"dy":0.0017,"dx":0.0017,"nx":28,"ny":28,"refTime":"2025-12-28T09:00:00:Z","depth":0,"parameterNumber":3,"parameterNumberName":"V-component_of_WINDS"},"data":[0,0,0,0,0,0,0,0,0,0,0,0,0,0,0,0,0,0,0,0,0,0,0,0,0,0,0,0,0,0,0,0,0,0,0,0,0,0,0,0,0,0,0,0,0,0,0,0,0,0,0,0,0,0,0,0,0,0,1.2515,1.2515,0,1.2547,1.2547,1.2547,1.2554,1.2554,1.2553,1.2553,1.2585,1.2586,1.2587,0,0,0,0,0,0,0,0,0,0,0,0,0,1.2459,1.246,1.2515,1.2515,1.2515,1.2547,1.2547,1.2548,1.2554,1.2554,1.2553,1.2553,1.2585,1.2586,1.2587,0,0,0,0,0,0,0,0,0,0,0,0,0,1.2486,1.246,1.2515,1.2522,1.2523,1.2547,1.2547,1.2548,1.2554,1.2554,1.2553,1.2553,1.2584,1.2586,1.2587,1.2605,0,0,1.2592,1.2593,0,0,0,0,0,0,0,0,1.2484,1.2488,1.2521,1.2522,1.2523,1.2546,1.2539,1.2567,1.2554,1.2542,1.2553,1.2553,1.2572,1.2575,1.2582,1.2606,1.2608,1.2593,1.2593,1.2594,1.2595,0,0,0,0,0,0,0,1.2483,1.2487,1.2527,1.2521,1.2523,1.2524,1.2528,1.2544,1.2559,1.2543,1.2544,1.2548,1.2573,1.258,1.2582,1.2608,1.2592,1.2594,1.2595,1.2596,1.2649,1.265,0,0,0,0,0,0,1.2479,1.2485,1.2526,1.2528,1.2502,1.2525,1.2529,1.2539,1.2559,1.2561,1.2548,1.2548,1.2577,1.2581,1.2584,1.2606,1.2594,1.2596,1.2597,1.2649,1.2649,1.265,0,0,0,0,0,0,1.2478,1.2483,1.2525,1.2507,1.2512,1.2527,1.2538,1.254,1.2547,1.2562,1.2565,1.2553,1.2577,1.2581,1.26,1.2607,1.2596,1.2598,1.2648,1.2649,1.265,1.265,0,0,0,0,0,0,1.2476,1.2482,1.2489,1.2507,1.2513,1.2541,1.2538,1.2541,1.255,1.255,1.2567,1.257,1.2577,1.2597,1.2601,1.2609,1.2599,1.2648,1.2649,1.2649,1.2649,1.2651,1.2652,0,0,0,0,0,1.2474,1.2488,1.249,1.2495,1.2522,1.2541,1.2545,1.2553,1.255,1.2557,1.2567,1.2569,1.2605,1.2599,1.2604,1.2612,1.2647,1.2648,1.2649,1.2649,1.265,1.2652,0,0,0,0,0,0,1.247,1.249,1.2492,1.2512,1.2525,1.2542,1.2551,1.2554,1.2568,1.2568,1.2577,1.2581,1.2599,1.2607,1.26,1.263,1.2626,1.2628,1.2624,1.2626,1.2627,1.2625,1.2601,0,0,0,0,0,1.2472,1.2485,1.2502,1.2518,1.2524,1.2537,1.2545,1.2551,1.2564,1.257,1.2581,1.2594,1.2608,1.2617,1.2631,1.265,1.2655,1.2658,1.266,1.266,1.2662,1.2674,1.2676,1.2653,1.2653,1.2653,0,0,1.2474,1.2487,1.2495,1.2517,1.2528,1.2542,1.2541,1.2556,1.2567,1.2572,1.259,1.2599,1.2614,1.2633,1.2642,1.264,1.2669,1.2662,1.2662,1.2664,1.2675,1.2677,1.2679,1.2654,1.2654,1.2654,0,0,1.2487,1.2498,1.2512,1.2523,1.254,1.2548,1.2551,1.2568,1.2574,1.2593,1.2597,1.261,1.2634,1.2645,1.2654,1.2671,1.2674,1.2675,1.2681,1.2692,1.2694,1.2696,1.2703,1.2705,1.2677,1.2677,1.2677,0,1.2489,1.251,1.2519,1.2535,1.2544,1.255,1.2565,1.2575,1.2595,1.2601,1.2599,1.263,1.2641,1.2663,1.2667,1.2674,1.2678,1.2674,1.2693,1.2695,1.2697,1.2703,1.2706,1.2677,1.2677,1.2677,1.2677,0,1.2512,1.2527,1.2537,1.2556,1.2567,1.2582,1.2593,1.2603,1.2607,1.2616,1.2635,1.2648,1.2665,1.267,1.2675,1.2693,1.2692,1.2691,1.2688,1.2699,1.2705,1.2708,1.2677,1.2677,1.2677,1.2677,0,0,1.2523,1.2548,1.2551,1.256,1.2579,1.2591,1.2606,1.2623,1.2631,1.2645,1.2658,1.2679,1.2679,1.2689,1.2694,1.2704,1.2717,1.2702,1.2703,1.2705,1.2739,1.274,1.2743,1.2719,1.272,1.272,1.2738,0,1.2538,1.2566,1.2575,1.2598,1.2612,1.2618,1.2631,1.2644,1.2652,1.2666,1.2675,1.269,1.2688,1.2694,1.2704,1.2714,1.2725,1.2712,1.2732,1.2732,1.2728,1.2746,1.2747,1.2763,1.2741,1.2741,1.2742,0,1.256,1.2575,1.2599,1.2617,1.2623,1.2635,1.2652,1.2664,1.2679,1.2684,1.2696,1.27,1.2717,1.2712,1.2734,1.2726,1.2734,1.274,1.2741,1.2744,1.2738,1.275,1.2769,1.2772,1.2745,1.2745,1.2745,0,1.2566,1.2592,1.261,1.2618,1.2639,1.2647,1.2656,1.267,1.268,1.2694,1.2701,1.2717,1.2726,1.2738,1.2747,1.2742,1.2769,1.2765,1.2774,1.2774,1.278,1.2779,1.2801,1.2784,1.2784,1.2784,1.2784,0,1.2583,1.2598,1.2614,1.2625,1.2642,1.2652,1.2669,1.2678,1.2691,1.2704,1.2709,1.2722,1.2733,1.2746,1.2753,1.2771,1.2775,1.278,1.2782,1.278,1.278,1.2786,1.2785,1.2785,1.2785,1.2784,1.2784,0,1.2593,1.2604,1.2624,1.2643,1.2647,1.2659,1.2675,1.2686,1.2695,1.2711,1.2716,1.2729,1.2746,1.2756,1.2777,1.2782,1.2802,1.2803,1.2797,1.2798,1.2807,1.2806,1.2834,1.2839,1.2818,1.2818,1.2819,0,1.2603,1.2615,1.2635,1.2644,1.2653,1.2668,1.2679,1.2689,1.2699,1.2717,1.2727,1.2743,1.2758,1.2784,1.2795,1.2811,1.2813,1.2822,1.2816,1.2814,1.2814,1.2814,1.2815,1.2823,1.2823,1.2823,1.2824,0,1.262,1.2625,1.264,1.2657,1.2669,1.2683,1.2697,1.2704,1.2717,1.2728,1.2746,1.2757,1.2778,1.2795,1.2812,1.2821,1.2825,1.2825,1.2829,1.2827,1.2824,1.2826,1.2801,1.2825,1.2825,1.2825,1.2825,1.2825,1.2631,1.2642,1.2658,1.2675,1.2686,1.2699,1.2711,1.2721,1.2736,1.2755,1.2759,1.2778,1.2792,1.2816,1.2825,1.284,1.2839,1.2843,1.2844,1.2845,1.2846,1.2821,1.2843,1.2843,1.2843,1.2843,1.2843,0,1.2649,1.266,1.2675,1.2694,1.2707,1.271,1.2725,1.2736,1.2752,1.2766,1.278,1.28,1.2816,1.283,1.2847,1.2856,1.2858,1.286,1.2859,1.2862,1.2846,1.2842,1.2858,1.2858,1.2858,1.2858,1.2858,1.2858,1.266,1.2679,1.2686,1.2711,1.2722,1.274,1.2749,1.2761,1.2772,1.2794,1.2808,1.2817,1.283,1.2849,1.2864,1.2867,1.2874,1.2876,1.2879,1.2864,1.2863,1.2861,1.2857,1.2877,1.2877,1.2894,1.2894,1.2895]}]]